Temp
-10 -10 -10 -10 -10 -10 -10 -10 -9 -9 -9 -9 -9 -10 -10 -10 -10 -10 -10 -9 -9 -9 -9 -9 -9 -9 -9 -9 -9 -9 -9 -9 -10 -10 -10 -10 -11 -11 -11 -11 -11 -11 -11 -11 -11
-10 -10 -10 -10 -10 -10 -10 -10 -10 -10 -10 -10 -9 -9 -10 -10 -10 -10 -10 -10 -10 -10 -10 -10 -10 -10 -9 -9 -9 -9 -10 -10 -10 -10 -10 -10 -10 -11 -11 -11 -11 -11 -10 -11 -11
-10 -10 -10 -10 -10 -10 -10 -10 -10 -10 -10 -10 -10 -10 -10 -10 -10 -10 -10 -10 -10 -10 -10 -10 -10 -9 -9 -9 -9 -10 -10 -10 -10 -10 -10 -10 -10 -11 -11 -11 -11 -11 -11 -10 -10
-10 -10 -10 -10 -10 -10 -10 -10 -10 -10 -10 -10 -10 -10 -10 -10 -10 -10 -10 -10 -10 -10 -10 -10 -10 -10 -9 -9 -10 -10 -10 -10 -10 -10 -10 -10 -11 -11 -11 -11 -12 -11 -11 -10 -10
-10 -10 -10 -10 -10 -10 -10 -10 -10 -10 -10 -10 -10 -10 -10 -10 -10 -10 -10 -10 -10 -10 -10 -10 -10 -10 -10 -10 -10 -10 -10 -10 -10 -10 -10 -10 -11 -11 -11 -11 -11 -11 -11 -11 -11
-10 -10 -10 -10 -10 -10 -10 -10 -10 -10 -10 -10 -10 -10 -10 -10 -10 -10 -10 -10 -10 -10 -10 -10 -10 -10 -10 -10 -10 -10 -10 -11 -11 -11 -11 -11 -11 -11 -11 -11 -11 -11 -10 -10 -11
-11 -11 -11 -11 -11 -10 -10 -10 -10 -10 -10 -10 -10 -10 -10 -10 -10 -10 -10 -10 -10 -10 -10 -10 -10 -10 -10 -10 -10 -10 -10 -10 -10 -10 -11 -11 -11 -11 -11 -11 -11 -11 -11 -11 -11
-11 -11 -11 -11 -11 -11 -11 -11 -11 -11 -10 -10 -10 -10 -10 -10 -10 -10 -10 -10 -10 -10 -10 -10 -10 -10 -10 -10 -10 -10 -10 -11 -11 -11 -11 -10 -11 -11 -11 -11 -11 -11 -11 -11 -11
-12 -12 -12 -11 -11 -11 -11 -11 -11 -11 -11 -11 -11 -11 -11 -11 -11 -11 -11 -11 -11 -10 -10 -10 -10 -10 -10 -10 -10 -10 -10 -10 -11 -10 -10 -10 -10 -12 -12 -11 -11 -11 -11 -11 -11
-12 -12 -12 -12 -12 -12 -12 -12 -11 -11 -11 -11 -11 -11 -11 -11 -11 -11 -11 -11 -11 -11 -11 -11 -10 -10 -11 -11 -10 -10 -10 -10 -10 -10 -10 -10 -10 -11 -11 -11 -11 -11 -11 -11 -11
-12 -12 -12 -12 -12 -12 -12 -12 -12 -12 -12 -12 -11 -11 -11 -11 -11 -11 -11 -11 -11 -11 -11 -11 -10 -11 -11 -10 -10 -10 -10 -10 -11 -11 -11 -11 -11 -11 -11 -11 -12 -11 -11 -11 -11
-12 -12 -12 -12 -12 -12 -12 -12 -12 -12 -12 -12 -12 -11 -11 -11 -11 -11 -12 -11 -11 -11 -11 -11 -10 -11 -11 -10 -10 -10 -11 -11 -11 -11 -10 -11 -11 -11 -12 -12 -12 -12 -12 -12 -12
-12 -12 -12 -12 -12 -12 -12 -12 -12 -12 -12 -12 -12 -11 -11 -11 -11 -11 -11 -11 -11 -11 -11 -11 -11 -11 -11 -11 -11 -11 -11 -11 -11 -11 -11 -11 -11 -12 -12 -12 -12 -12 -13 -13 -13
-12 -13 -13 -12 -12 -13 -13 -13 -13 -13 -12 -11 -12 -11 -11 -12 -11 -11 -12 -11 -11 -11 -11 -10 -11 -11 -11 -11 -11 -11 -12 -12 -12 -12 -12 -11 -11 -12 -12 -13 -13 -13 -13 -13 -13
-13 -13 -14 -13 -12 -13 -14 -14 -14 -14 -12 -11 -11 -11 -11 -12 -12 -11 -11 -11 -11 -11 -11 -11 -11 -12 -12 -12 -12 -12 -12 -12 -12 -12 -11 -12 -12 -11 -12 -13 -13 -13 -13 -13 -13
-13 -13 -13 -13 -12 -13 -14 -13 -14 -14 -12 -11 -11 -12 -12 -12 -12 -12 -12 -12 -12 -12 -12 -12 -12 -13 -13 -13 -13 -13 -13 -13 -12 -12 -11 -12 -13 -11 -12 -13 -13 -14 -14 -14 -14
-13 -13 -13 -13 -13 -14 -13 -14 -15 -13 -11 -11 -12 -12 -12 -12 -12 -12 -12 -12 -12 -12 -12 -13 -13 -13 -13 -13 -13 -13 -14 -14 -13 -13 -13 -13 -13 -12 -13 -13 -14 -14 -14 -14 -14
-13 -13 -13 -13 -14 -14 -14 -15 -15 -11 -12 -12 -13 -13 -13 -13 -13 -13 -13 -13 -13 -13 -13 -13 -13 -14 -14 -14 -14 -13 -14 -15 -14 -14 -14 -13 -12 -12 -14 -14 -14 -14 -14 -14 -15
-14 -13 -13 -13 -13 -14 -14 -15 -12 -12 -12 -13 -13 -13 -13 -14 -14 -14 -13 -13 -13 -13 -14 -14 -14 -14 -14 -14 -15 -14 -14 -15 -15 -15 -15 -14 -13 -14 -14 -15 -15 -15 -15 -15 -15
-14 -14 -13 -13 -14 -14 -14 -14 -12 -12 -12 -13 -13 -13 -13 -14 -14 -14 -14 -13 -14 -14 -14 -14 -14 -14 -15 -15 -16 -16 -16 -16 -16 -16 -16 -14 -14 -15 -15 -15 -15 -16 -17 -16 -16
-14 -14 -13 -14 -14 -14 -14 -14 -12 -12 -13 -13 -13 -14 -13 -14 -14 -14 -14 -14 -14 -15 -15 -14 -15 -15 -15 -16 -17 -17 -16 -16 -17 -16 -16 -15 -14 -15 -15 -16 -16 -16 -17 -18 -18
-14 -14 -13 -14 -14 -14 -14 -13 -13 -12 -13 -14 -14 -15 -15 -15 -14 -15 -14 -15 -15 -15 -16 -16 -15 -15 -15 -16 -17 -17 -16 -17 -17 -16 -17 -17 -15 -16 -16 -17 -17 -17 -18 -19 -19
-14 -14 -14 -14 -14 -14 -14 -14 -14 -13 -13 -14 -14 -15 -15 -15 -15 -15 -15 -15 -15 -15 -16 -17 -16 -16 -16 -16 -17 -17 -17 -17 -17 -18 -17 -18 -16 -17 -18 -18 -19 -19 -19 -20 -20
-15 -15 -14 -14 -14 -14 -14 -14 -14 -14 -14 -14 -15 -15 -15 -15 -15 -15 -15 -16 -16 -16 -16 -17 -17 -17 -16 -17 -17 -17 -17 -18 -18 -18 -18 -18 -18 -18 -19 -19 -20 -20 -21 -21 -21
-15 -15 -15 -15 -14 -14 -14 -14 -14 -15 -15 -15 -15 -15 -15 -16 -16 -16 -16 -17 -17 -17 -17 -17 -17 -17 -17 -18 -18 -18 -18 -18 -18 -19 -19 -18 -19 -19 -21 -21 -21 -21 -21 -21 -22
-16 -16 -15 -15 -15 -15 -15 -15 -15 -15 -15 -15 -16 -16 -16 -16 -16 -17 -17 -18 -18 -18 -18 -18 -18 -18 -18 -19 -19 -19 -18 -18 -19 -19 -20 -20 -20 -21 -21 -22 -22 -23 -23 -23 -24
-17 -17 -16 -16 -16 -16 -15 -15 -16 -16 -16 -16 -16 -17 -17 -17 -17 -18 -18 -18 -19 -18 -18 -19 -19 -19 -19 -19 -19 -19 -18 -19 -20 -20 -21 -21 -21 -22 -23 -23 -23 -23 -24 -24 -24
Height
5855 5857 5859 5860 5862 5863 5864 5865 5866 5866 5867 5868 5868 5869 5869 5870 5870 5871 5871 5871 5871 5871 5871 5871 5871 5871 5870 5869 5868 5868 5866 5865 5864 5863 5863 5862 5862 5861 5861 5859 5858 5857 5854 5855 5856
5850 5852 5854 5856 5857 5859 5860 5861 5862 5863 5864 5865 5865 5866 5866 5867 5867 5867 5868 5868 5868 5868 5868 5868 5868 5867 5867 5866 5865 5864 5862 5861 5860 5860 5859 5859 5859 5859 5859 5857 5856 5852 5851 5851 5852
5844 5846 5849 5851 5852 5854 5856 5857 5859 5860 5861 5862 5862 5862 5862 5863 5864 5864 5864 5864 5864 5864 5864 5864 5863 5863 5862 5861 5860 5860 5858 5857 5856 5856 5856 5855 5856 5855 5854 5854 5853 5850 5847 5845 5846
5839 5841 5843 5845 5847 5849 5850 5852 5853 5855 5856 5857 5857 5858 5858 5859 5860 5859 5860 5860 5859 5859 5859 5859 5858 5858 5857 5857 5856 5856 5854 5853 5851 5851 5851 5852 5851 5850 5848 5847 5845 5847 5845 5842 5843
5832 5835 5837 5838 5840 5842 5844 5845 5847 5848 5850 5851 5852 5853 5854 5854 5853 5854 5854 5854 5854 5853 5853 5853 5853 5852 5851 5851 5852 5852 5851 5849 5848 5845 5847 5847 5847 5847 5846 5843 5838 5838 5838 5839 5840
5825 5827 5830 5831 5833 5835 5837 5838 5839 5841 5842 5844 5845 5846 5848 5849 5848 5848 5848 5848 5848 5848 5847 5846 5846 5846 5846 5845 5847 5847 5847 5846 5845 5843 5843 5843 5843 5843 5842 5839 5834 5834 5832 5832 5834
5817 5819 5822 5824 5825 5827 5829 5830 5832 5833 5834 5835 5837 5838 5841 5842 5842 5842 5841 5841 5841 5841 5841 5841 5841 5841 5841 5840 5840 5839 5841 5840 5840 5840 5838 5838 5839 5837 5837 5834 5831 5828 5828 5827 5827
5808 5811 5813 5815 5817 5819 5821 5822 5823 5825 5826 5827 5829 5830 5832 5834 5834 5834 5834 5834 5834 5834 5834 5834 5834 5834 5835 5834 5833 5833 5834 5835 5834 5832 5830 5829 5834 5831 5829 5826 5824 5824 5823 5822 5820
5799 5801 5803 5806 5808 5811 5812 5813 5815 5816 5818 5819 5821 5821 5824 5826 5826 5825 5826 5827 5827 5827 5827 5827 5827 5827 5829 5827 5825 5825 5825 5827 5827 5825 5822 5822 5825 5827 5823 5819 5819 5818 5817 5816 5815
5789 5792 5794 5797 5800 5802 5803 5805 5806 5808 5809 5810 5812 5814 5816 5817 5818 5817 5818 5818 5819 5820 5820 5820 5819 5820 5822 5818 5818 5818 5818 5818 5820 5820 5815 5815 5813 5816 5813 5813 5811 5811 5811 5810 5808
5779 5781 5784 5787 5790 5792 5795 5796 5798 5799 5800 5802 5803 5804 5805 5808 5809 5809 5810 5811 5812 5813 5812 5812 5812 5815 5813 5811 5811 5811 5810 5810 5811 5810 5807 5809 5806 5806 5804 5803 5804 5804 5803 5802 5801
5769 5772 5774 5777 5780 5783 5785 5786 5788 5788 5791 5792 5793 5795 5796 5798 5800 5801 5802 5803 5804 5804 5804 5805 5804 5807 5804 5803 5803 5803 5802 5802 5800 5799 5797 5798 5798 5797 5797 5795 5795 5795 5795 5794 5793
5758 5761 5764 5767 5770 5773 5775 5777 5777 5777 5777 5784 5783 5785 5787 5788 5789 5793 5794 5794 5795 5795 5797 5794 5795 5796 5796 5795 5794 5793 5794 5792 5792 5791 5788 5788 5788 5789 5789 5788 5787 5786 5785 5783 5783
5746 5749 5752 5756 5761 5763 5765 5765 5766 5766 5765 5770 5775 5773 5777 5778 5778 5784 5785 5786 5785 5787 5786 5784 5787 5784 5785 5787 5786 5786 5784 5784 5783 5781 5781 5780 5775 5779 5780 5778 5778 5778 5776 5775 5774
5732 5736 5739 5745 5748 5752 5753 5752 5752 5755 5753 5757 5760 5765 5766 5769 5769 5771 5772 5773 5774 5775 5775 5776 5774 5776 5776 5776 5776 5777 5775 5774 5772 5771 5770 5772 5770 5765 5764 5764 5766 5766 5765 5765 5764
5718 5723 5726 5731 5737 5738 5737 5738 5739 5742 5737 5743 5745 5751 5755 5757 5758 5758 5759 5761 5763 5763 5765 5765 5765 5767 5768 5767 5767 5767 5766 5764 5762 5762 5759 5763 5760 5755 5754 5754 5753 5751 5750 5748 5747
5706 5709 5713 5718 5726 5723 5724 5725 5726 5726 5731 5734 5736 5739 5742 5745 5747 5748 5748 5750 5752 5753 5755 5755 5756 5756 5757 5758 5757 5756 5755 5753 5752 5753 5752 5750 5748 5748 5745 5744 5742 5742 5739 5737 5736
5695 5696 5701 5706 5710 5709 5710 5709 5709 5717 5721 5723 5726 5729 5730 5732 5734 5736 5738 5740 5742 5743 5744 5745 5747 5746 5747 5747 5746 5745 5744 5744 5742 5738 5739 5738 5734 5735 5732 5731 5731 5730 5728 5727 5723
5683 5684 5687 5695 5698 5697 5695 5690 5697 5704 5708 5712 5714 5715 5718 5721 5723 5723 5725 5728 5729 5731 5733 5733 5735 5736 5736 5736 5735 5734 5734 5735 5731 5730 5726 5725 5725 5725 5721 5721 5720 5718 5716 5714 5711
5670 5670 5674 5683 5687 5685 5678 5679 5688 5691 5694 5697 5702 5705 5707 5709 5710 5712 5714 5717 5717 5717 5718 5720 5721 5723 5724 5724 5723 5724 5723 5721 5720 5716 5712 5713 5715 5712 5713 5711 5711 5710 5707 5701 5696
5655 5655 5662 5669 5673 5667 5662 5669 5673 5678 5681 5687 5690 5691 5694 5696 5700 5700 5702 5705 5705 5707 5707 5707 5707 5710 5710 5711 5713 5711 5709 5709 5707 5703 5700 5700 5701 5699 5699 5698 5695 5692 5691 5689 5685
5640 5640 5647 5654 5653 5650 5653 5658 5665 5665 5668 5672 5676 5679 5681 5684 5687 5688 5689 5692 5694 5694 5695 5695 5693 5695 5697 5696 5697 5698 5697 5696 5691 5692 5687 5683 5691 5685 5684 5681 5676 5676 5675 5672 5668
5624 5627 5631 5635 5633 5637 5641 5644 5649 5654 5656 5659 5662 5666 5669 5672 5673 5675 5677 5680 5681 5683 5683 5682 5679 5681 5683 5683 5685 5686 5685 5682 5679 5676 5670 5670 5674 5673 5669 5662 5661 5659 5656 5652 5649
5607 5610 5614 5618 5620 5627 5631 5632 5636 5640 5643 5646 5649 5650 5654 5656 5657 5660 5664 5665 5666 5669 5669 5666 5666 5666 5670 5670 5669 5669 5671 5668 5663 5656 5659 5657 5659 5658 5653 5648 5644 5641 5636 5634 5631
5591 5596 5601 5603 5609 5615 5616 5618 5622 5626 5629 5631 5631 5634 5638 5640 5642 5643 5648 5651 5653 5653 5653 5649 5650 5650 5650 5651 5650 5653 5653 5649 5644 5645 5638 5646 5642 5645 5637 5633 5627 5624 5621 5618 5612
5578 5583 5588 5593 5596 5598 5599 5604 5609 5611 5615 5618 5620 5624 5624 5625 5629 5631 5632 5634 5636 5639 5639 5637 5634 5633 5633 5634 5632 5634 5639 5630 5631 5630 5625 5625 5624 5628 5622 5614 5609 5605 5602 5600 5597
5561 5567 5574 5578 5580 5582 5588 5593 5598 5597 5600 5603 5609 5606 5608 5614 5614 5613 5614 5618 5619 5623 5623 5622 5621 5618 5615 5617 5614 5613 5626 5620 5616 5616 5610 5602 5608 5604 5600 5596 5593 5589 5587 5583 5579
Wind_Speed
24 23 22 21 20 19 18 16 15 14 13 13 13 14 13 13 14 14 14 13 13 13 13 13 14 15 16 17 19 20 23 23 20 18 16 15 14 14 15 17 20 22 23 18 16
27 27 26 25 23 22 21 20 19 18 17 16 16 16 17 17 17 18 17 17 17 18 18 18 18 19 20 21 23 24 24 21 20 17 18 16 17 17 17 20 21 24 21 19 18
31 30 29 28 27 26 25 24 24 23 22 20 18 18 18 19 21 22 22 22 22 22 22 22 23 23 25 26 26 25 23 20 20 21 21 20 20 21 20 21 19 20 23 24 21
35 34 33 32 31 31 30 29 28 27 26 23 21 20 21 20 23 22 22 23 24 25 25 26 28 29 31 30 28 20 20 21 25 25 23 22 22 22 24 24 24 21 23 25 25
39 38 37 36 36 35 34 34 32 31 29 27 26 25 24 25 27 26 26 27 28 29 31 32 32 31 31 27 22 18 23 25 25 28 25 25 25 24 24 26 30 31 28 27 26
43 42 41 41 39 39 38 37 36 35 35 33 32 31 29 29 31 32 31 31 32 34 34 32 29 26 24 24 23 24 25 25 27 28 27 27 28 26 26 27 30 29 32 32 28
45 44 44 44 43 42 41 41 40 38 37 36 35 34 33 33 34 35 35 36 35 33 31 29 29 29 28 29 28 29 26 25 26 28 30 30 28 28 25 26 29 32 32 31 29
46 46 46 46 45 44 43 43 42 41 41 39 38 37 35 34 35 36 38 36 33 32 32 33 34 32 30 29 29 30 29 27 28 29 31 30 23 25 27 30 32 34 32 30 28
49 47 46 46 46 44 43 43 43 42 41 40 38 39 38 36 37 37 37 36 35 35 35 34 34 32 29 31 32 31 31 28 26 29 32 32 27 24 30 35 35 34 30 26 27
48 48 48 47 47 46 46 45 44 44 43 42 41 42 38 36 36 37 37 37 36 35 34 33 33 30 27 32 32 31 32 32 29 30 35 34 36 33 38 37 34 30 28 27 26
48 47 47 46 45 44 44 44 43 42 42 42 42 41 40 38 37 36 35 35 35 35 35 34 34 29 33 36 36 35 36 37 34 35 37 34 37 36 35 32 29 29 28 29 30
51 50 49 48 46 44 44 44 44 44 43 43 43 41 41 40 39 38 38 37 36 35 35 36 38 34 37 39 40 39 38 36 36 35 36 34 32 33 31 34 33 31 29 29 31
53 52 53 52 50 48 47 46 45 46 47 43 43 43 43 44 42 40 38 37 37 38 37 42 43 40 40 40 40 38 34 35 35 35 38 38 38 35 35 36 36 34 35 36 35
59 54 55 55 52 51 49 50 50 49 51 49 45 48 46 45 45 40 41 42 42 41 44 45 41 43 40 36 35 34 35 35 36 38 40 42 45 40 37 39 39 38 39 40 40
65 65 61 58 56 55 55 55 55 52 56 53 50 47 47 46 46 44 44 47 47 41 41 39 39 37 36 35 34 34 35 37 39 42 45 43 45 45 43 43 40 42 40 40 42
67 63 69 67 63 60 63 62 62 56 59 56 53 49 42 41 42 42 38 39 41 41 38 38 38 36 34 35 36 35 37 39 43 45 48 42 44 49 48 46 44 45 47 47 46
54 59 61 62 67 67 65 64 59 61 56 54 51 47 44 40 38 37 36 36 38 38 36 37 36 37 37 36 37 38 40 43 46 46 48 46 46 46 47 47 47 47 48 49 50
49 51 52 53 59 61 61 57 63 50 52 53 49 45 43 38 37 36 36 36 38 37 37 38 37 37 38 38 41 44 45 43 47 47 47 49 54 54 53 51 48 48 49 49 51
47 50 49 52 48 43 53 55 53 47 44 45 44 43 40 39 39 38 40 41 41 41 39 39 41 39 39 41 41 42 44 41 46 48 49 52 54 54 54 51 50 49 49 50 52
53 50 48 48 42 48 52 58 46 50 47 43 43 42 40 42 44 43 44 44 43 42 41 43 44 43 42 43 43 41 43 47 47 49 51 52 52 51 49 49 50 51 53 54 57
54 55 53 53 52 61 68 55 52 54 52 49 47 46 45 46 46 49 49 48 46 44 46 49 50 51 51 47 41 42 44 43 44 49 52 54 59 58 53 52 55 55 57 59 59
60 56 58 59 63 66 63 61 62 60 58 53 52 49 49 48 50 54 54 52 51 50 49 50 54 54 52 51 47 42 43 43 47 50 52 55 59 58 53 54 57 57 59 63 65
56 61 62 57 66 69 66 71 67 68 63 59 59 58 57 54 57 59 58 57 55 55 52 48 53 53 56 56 50 48 47 47 49 52 59 60 60 54 55 59 59 61 64 67 69
59 55 61 65 68 69 67 66 65 68 65 67 66 67 63 60 62 62 60 55 52 54 56 55 56 58 59 55 53 50 48 51 56 62 59 59 56 58 61 62 64 65 68 70 72
59 61 56 61 64 66 69 68 67 68 73 68 69 69 67 59 57 61 60 52 52 56 59 60 62 60 55 51 51 50 51 55 60 59 64 59 60 59 64 64 68 71 73 74 75
62 54 59 58 57 62 66 70 66 70 73 69 57 57 56 61 60 55 53 53 52 54 57 58 61 60 57 53 55 58 56 61 60 60 64 67 67 64 65 65 68 69 70 71 70
62 59 58 67 63 65 70 69 68 68 69 67 62 55 59 57 51 54 56 48 51 55 60 61 63 65 63 59 61 67 62 60 61 60 67 70 65 66 66 67 68 69 67 68 70
Wind_Direction
228 230 230 230 234 237 240 242 243 252 261 265 267 260 255 250 244 243 240 244 253 259 267 272 280 287 291 294 295 301 300 299 297 299 299 297 300 293 291 295 305 316 309 308 301
232 233 234 236 239 243 246 247 251 256 261 263 264 260 256 253 254 253 251 255 264 270 273 280 285 288 289 291 295 298 295 294 289 291 285 291 298 294 290 289 305 304 301 301 302
234 235 238 240 243 246 249 252 255 258 261 262 265 264 258 255 254 256 260 266 270 274 277 282 285 286 287 289 293 295 292 287 285 287 286 290 300 299 296 295 298 296 302 306 306
238 239 241 243 246 247 251 253 255 259 261 260 261 265 264 260 259 259 261 265 270 273 278 281 283 285 285 286 289 287 287 286 287 285 282 285 293 304 303 307 299 294 291 295 299
241 243 245 246 248 251 253 255 258 260 262 262 261 260 262 263 263 265 266 270 273 277 280 282 283 283 284 285 280 280 283 283 283 283 285 290 295 296 297 298 296 297 290 290 298
242 244 247 248 250 252 255 257 259 262 263 264 264 263 261 260 263 265 267 271 274 277 279 278 279 280 280 278 277 279 278 275 276 278 280 283 288 291 292 290 289 292 297 302 302
245 246 248 250 252 253 255 258 260 260 263 265 265 264 263 261 263 266 270 275 276 276 274 274 275 276 277 278 281 280 280 280 279 281 283 283 286 288 287 284 285 295 301 304 298
247 249 250 252 254 255 257 259 261 263 263 265 266 265 264 264 265 267 271 272 271 271 272 273 276 278 280 280 281 281 281 279 282 283 282 283 284 286 284 284 284 290 294 298 293
246 248 250 252 254 256 257 260 261 263 264 265 266 266 266 265 266 267 267 268 268 270 271 273 276 278 282 282 279 281 286 287 285 287 286 287 288 280 282 282 286 289 291 283 282
246 248 249 251 253 255 258 258 261 262 264 265 265 266 266 264 264 265 266 267 268 268 269 271 273 276 283 279 281 284 284 284 287 281 279 282 282 285 280 282 287 290 289 288 285
246 246 248 251 253 254 257 259 259 261 264 264 265 264 266 266 265 263 264 265 268 270 270 271 272 279 277 278 281 280 280 282 281 278 277 276 280 280 283 284 284 284 282 281 280
246 248 247 249 250 252 255 258 260 262 261 264 265 265 267 267 264 264 266 268 268 268 269 272 272 274 274 277 279 279 278 282 280 278 284 284 282 281 283 286 289 283 281 280 279
245 247 250 248 249 250 252 254 257 261 262 259 263 265 266 264 266 266 265 264 265 266 271 270 271 269 272 273 274 274 278 276 280 280 284 285 283 282 284 284 284 284 286 286 285
244 246 248 251 251 253 253 255 256 255 261 262 257 262 265 266 264 266 265 265 265 267 269 267 267 267 266 267 268 273 273 277 280 284 283 285 286 285 282 281 281 282 284 286 287
246 245 242 250 251 252 253 253 251 257 261 265 265 264 263 262 267 271 267 264 265 265 266 263 262 259 262 264 269 270 274 277 279 279 283 284 288 291 288 288 288 288 289 289 287
250 251 247 243 248 253 255 260 255 252 255 262 268 270 265 263 264 269 266 261 261 263 263 262 260 260 261 265 270 272 272 273 276 279 280 285 283 291 292 291 295 295 296 295 294
247 248 252 252 252 257 262 264 254 252 257 262 266 267 266 264 261 262 262 262 261 262 261 259 258 262 269 272 273 273 272 275 276 278 280 282 284 286 288 290 289 292 290 289 291
248 251 251 249 252 258 262 258 249 258 256 263 267 264 265 259 261 260 259 261 265 262 258 260 262 265 270 272 273 275 275 274 278 278 283 287 292 295 295 293 292 290 290 291 289
245 245 247 248 245 249 253 248 252 256 258 257 259 257 253 255 261 263 267 268 266 266 264 266 267 268 267 267 267 270 274 275 273 275 279 285 289 292 289 291 290 290 289 286 285
241 240 238 240 240 248 252 254 251 254 252 252 251 252 256 261 260 264 270 270 268 266 268 269 271 269 266 266 266 272 273 273 276 276 278 285 287 285 285 286 289 288 284 282 281
240 240 241 239 241 244 248 248 245 252 249 252 249 251 260 261 260 267 270 269 268 268 269 272 271 273 272 270 270 268 272 275 277 278 282 284 285 286 286 287 286 284 281 280 279
230 242 237 230 237 238 238 243 244 247 250 255 250 253 261 262 259 263 265 265 265 266 265 264 267 268 269 271 271 273 277 279 278 281 280 278 284 285 288 286 282 282 279 276 275
235 239 237 232 234 233 235 237 244 246 249 250 251 256 262 255 258 260 261 263 263 264 262 256 261 265 267 268 272 277 277 276 277 278 280 282 290 289 287 281 279 275 275 274 274
228 233 235 237 237 236 238 236 242 244 247 247 255 254 256 253 255 257 260 256 259 262 260 259 262 265 268 272 274 276 280 282 282 280 284 285 287 286 282 279 278 277 277 277 278
240 241 239 243 241 241 241 241 241 241 240 243 244 248 250 251 247 250 248 254 259 259 259 263 268 269 273 278 279 279 281 283 282 285 280 287 284 281 279 277 275 276 276 277 278
240 250 246 244 243 240 237 237 241 239 240 240 244 249 249 244 248 252 254 256 258 259 261 266 273 273 274 278 280 279 279 278 282 283 282 279 275 277 275 274 274 276 277 279 281
238 242 245 244 242 235 235 233 234 236 238 243 248 242 245 245 253 252 253 255 259 264 268 271 276 277 273 273 274 275 281 280 280 279 277 277 281 276 276 277 277 278 279 280 281